Home > Weather > Serekunda > Past weeks

Flag for Gambia Weather for the Past 2 Weeks in Serekunda, Gambia

Now
70 °F

Clear.


Feels Like: 70 °F
Forecast: 71 / 92 °F
Wind: 6 mph from North

Location: Banjul / Yundum

Current Time: Feb 7, 2016 at 4:59:03 AM

Latest Report: Feb 7, 2016 at 4:00 AM


Visibility: 5 mi

Pressure: 29.92 "Hg

Humidity: 73%

Dew point: 61 °F

Location of SerekundaLocation

Historic Weather in Serekunda — Graph

°F

Serekunda Temperature Yesterday

Maximum temperature yesterday: 97 °F (at 3:00 PM)
Minimum temperature yesterday: 66 °F (at 6:00 AM)
Average temperature yesterday: 80 °F

High & Low Weather Summary for the Past Weeks

 TemperatureHumidityPressure
High99 °F (Jan 23, 3:00 PM)94% (Jan 23, 3:00 AM)29.98 "Hg (Jan 23, 3:00 AM)
Low63 °F (Jan 23, 8:00 AM)12% (Jan 31, 3:00 PM)29.80 "Hg (Feb 2, 5:00 PM)
Average79 °F41%29.90 "Hg
* Reported Jan 23 3:00 AM — Feb 7 3:00 AM, Serekunda, Weather by CustomWeather, © 2016

Note: Actual official high and low records may vary slightly from our data, if they occured in-between our weather recording intervals... More about our weather records

Advertising

Serekunda Weather History for the Previous 24 Hours

 ConditionsComfort  
Time TempWeatherWind HumidityBarometerVisibility
3:00 AM
Sun, Feb 7
70 °FClear.No wind78%29.92 "Hg5 mi
2:00 AM72 °FClear.6 mph73%29.95 "Hg5 mi
1:00 AM73 °FClear.17 mph65%29.92 "Hg5 mi
12:00 AM75 °FClear.6 mph61%29.95 "Hg5 mi
11:00 PM
Sat, Feb 6
75 °FClear.8 mph54%29.92 "Hg5 mi
10:00 PM75 °FClear.8 mph65%29.92 "Hg5 mi
9:00 PM77 °FClear.10 mph61%29.89 "Hg5 mi
8:00 PM81 °FClear.7 mph54%29.86 "Hg5 mi
7:00 PM88 °FClear.No wind35%29.83 "Hg6 mi
6:00 PM95 °FClear.No wind26%29.83 "Hg6 mi
5:00 PM97 °FClear.5 mph19%29.80 "Hg6 mi
4:00 PM97 °FClear.5 mph18%29.86 "Hg6 mi
3:00 PM97 °FClear.6 mph19%29.86 "Hg6 mi
2:00 PM95 °FClear.6 mph18%29.86 "Hg6 mi
1:00 PM90 °FSunny.10 mph18%29.89 "Hg6 mi
12:00 PM90 °FSunny.12 mph17%29.92 "Hg6 mi
11:00 AM84 °FClear.10 mph19%29.92 "Hg6 mi
10:00 AM79 °FClear.3 mph28%29.92 "Hg6 mi
9:00 AM70 °FClear.6 mph53%29.92 "Hg6 mi
8:00 AM66 °FClear.7 mph60%29.89 "Hg6 mi
7:00 AM66 °FClear.6 mph60%29.89 "Hg6 mi
6:00 AM66 °FClear.6 mph60%29.89 "Hg6 mi
5:00 AM70 °FClear.6 mph50%29.89 "Hg6 mi
4:00 AM70 °FClear.6 mph53%29.89 "Hg6 mi
Weather by CustomWeather, © 2016

See weather overviewHow to use our weather pages